When you browse on this site, cookies collect data to enhance your experience and personalize the content and advertising you see.
Visit our Privacy Policy to learn more. By continuing to use the site, you agree to this use of cookies and data.
  • In Germany
  • List of Countries
  • For 7 days
  • Water Temperature
  • Weather Map
  • Weather Widgets
  • user-avatar
    Login

    Hourly Weather Andora

    Today, 12 December, Thursday

    Time Temperature Precipitation Wind Pressure Humidity
    00:00 -4°C° 0.7 mm 2 mps 619 mmHg 93%
    01:00 -4°C° 0.8 mm 2 mps 619 mmHg 94%
    02:00 -3°C° 0.8 mm 2 mps 619 mmHg 94%
    03:00 -3°C° 0.8 mm 2 mps 618 mmHg 95%
    04:00 -3°C° 0.5 mm 2 mps 618 mmHg 95%
    05:00 -2°C° 0.5 mm 1 mps 618 mmHg 95%
    06:00 -2°C° 0.5 mm 1 mps 618 mmHg 95%
    07:00 -1°C° 0.4 mm 1 mps 618 mmHg 92%
    08:00 0°C° 0.4 mm 1 mps 619 mmHg 89%
    09:00 0°C° 0.4 mm 1 mps 619 mmHg 86%
    10:00 +1°C° 0.1 mm 1 mps 619 mmHg 83%
    11:00 +2°C° 0.1 mm 1 mps 618 mmHg 80%
    12:00 +3°C° 0.1 mm 1 mps 618 mmHg 76%
    13:00 +2°C° 0.1 mm 1 mps 617 mmHg 80%
    14:00 +2°C° 0.1 mm 1 mps 617 mmHg 84%
    15:00 +2°C° 0.1 mm 1 mps 616 mmHg 88%
    16:00 -1°C° 0.3 mm 2 mps 615 mmHg 90%
    17:00 -2°C° 0.3 mm 2 mps 614 mmHg 93%
    18:00 -2°C° 0.3 mm 2 mps 613 mmHg 96%
    19:00 -2°C° 1.6 mm 2 mps 613 mmHg 96%
    20:00 -2°C° 1.6 mm 2 mps 612 mmHg 97%
    21:00 -2°C° 1.6 mm 2 mps 612 mmHg 97%
    22:00 -2°C° 2.3 mm 2 mps 612 mmHg 97%
    23:00 -1°C° 2.3 mm 2 mps 612 mmHg 98%

    Tomorrow, 13 December, Friday

    Time Temperature Precipitation Wind Pressure Humidity
    00:00 +1°C° 2.3 mm 1 mps 612 mmHg 98%
    01:00 +1°C° 1.1 mm 1 mps 611 mmHg 98%
    02:00 +1°C° 1.1 mm 1 mps 611 mmHg 97%
    03:00 +1°C° 1.1 mm 1 mps 610 mmHg 97%
    04:00 -1°C° 1.6 mm 2 mps 610 mmHg 98%
    05:00 -1°C° 1.6 mm 2 mps 610 mmHg 98%
    06:00 +1°C° 1.6 mm 2 mps 610 mmHg 98%
    07:00 +1°C° 2.3 mm 2 mps 611 mmHg 98%
    08:00 +1°C° 2.3 mm 2 mps 611 mmHg 98%
    09:00 +1°C° 2.3 mm 2 mps 612 mmHg 98%
    10:00 +2°C° 3.5 mm 2 mps 612 mmHg 98%
    11:00 +2°C° 3.5 mm 2 mps 612 mmHg 98%
    12:00 +2°C° 3.5 mm 2 mps 612 mmHg 98%
    13:00 +2°C° 1.8 mm 2 mps 612 mmHg 98%
    14:00 +1°C° 1.8 mm 3 mps 612 mmHg 98%
    15:00 +1°C° 1.8 mm 3 mps 613 mmHg 97%
    16:00 +1°C° 3.4 mm 3 mps 613 mmHg 98%
    17:00 +2°C° 3.4 mm 2 mps 614 mmHg 98%
    18:00 +1°C° 3.4 mm 2 mps 614 mmHg 99%
    19:00 +2°C° 2.5 mm 2 mps 615 mmHg 99%
    20:00 +2°C° 2.5 mm 2 mps 615 mmHg 99%
    21:00 +2°C° 2.5 mm 2 mps 616 mmHg 99%
    22:00 +2°C° 0.9 mm 2 mps 616 mmHg 98%
    23:00 +2°C° 0.9 mm 2 mps 617 mmHg 98%

    Day after tomorrow, 14 December, Saturday

    Time Temperature Precipitation Wind Pressure Humidity
    00:00 +2°C° 0.9 mm 2 mps 617 mmHg 98%
    01:00 +2°C° 0 mm 2 mps 617 mmHg 98%
    02:00 +2°C° 0 mm 2 mps 617 mmHg 98%
    03:00 +2°C° 0 mm 2 mps 617 mmHg 97%
    04:00 +1°C° 0 mm 2 mps 618 mmHg 97%
    05:00 +1°C° 0 mm 2 mps 618 mmHg 96%
    06:00 0°C° 0 mm 3 mps 618 mmHg 95%
    07:00 +1°C° 0 mm 2 mps 619 mmHg 94%
    08:00 +1°C° 0 mm 2 mps 619 mmHg 93%
    09:00 +2°C° 0 mm 2 mps 620 mmHg 92%
    10:00 +3°C° 0 mm 1 mps 620 mmHg 91%
    11:00 +4°C° 0 mm 1 mps 620 mmHg 91%
    12:00 +4°C° 0 mm 0 mps 620 mmHg 91%
    13:00 +4°C° 0 mm 0 mps 620 mmHg 92%
    14:00 +3°C° 0 mm 0 mps 620 mmHg 93%
    15:00 +3°C° 0 mm 0 mps 620 mmHg 94%
    16:00 +3°C° 0 mm 1 mps 620 mmHg 93%
    17:00 +2°C° 0 mm 1 mps 619 mmHg 93%
    18:00 0°C° 0 mm 1 mps 619 mmHg 92%
    19:00 0°C° 0 mm 1 mps 619 mmHg 91%
    20:00 0°C° 0 mm 1 mps 619 mmHg 90%
    21:00 -1°C° 0 mm 1 mps 619 mmHg 89%
    22:00 -1°C° 0 mm 1 mps 619 mmHg 88%
    23:00 -1°C° 0 mm 1 mps 619 mmHg 88%

    15 December, Sunday

    Time Temperature Precipitation Wind Pressure Humidity
    00:00 -1°C° 0 mm 1 mps 619 mmHg 88%
    01:00 -1°C° 0 mm 1 mps 619 mmHg 86%
    02:00 -1°C° 0 mm 1 mps 619 mmHg 84%
    03:00 -1°C° 0 mm 1 mps 618 mmHg 82%
    04:00 -1°C° 0 mm 1 mps 619 mmHg 79%
    05:00 -3°C° 0 mm 2 mps 619 mmHg 76%
    06:00 -3°C° 0 mm 2 mps 619 mmHg 73%
    07:00 -1°C° 0 mm 2 mps 620 mmHg 77%
    08:00 +2°C° 0 mm 1 mps 620 mmHg 80%
    09:00 +3°C° 0 mm 1 mps 621 mmHg 83%
    10:00 +4°C° 0 mm 1 mps 621 mmHg 84%
    11:00 +5°C° 0 mm 1 mps 621 mmHg 84%
    12:00 +5°C° 0 mm 1 mps 622 mmHg 85%
    13:00 +5°C° 0 mm 1 mps 621 mmHg 86%
    14:00 +4°C° 0 mm 2 mps 621 mmHg 87%
    15:00 +4°C° 0 mm 2 mps 620 mmHg 88%
    16:00 +3°C° 0 mm 2 mps 620 mmHg 89%
    17:00 +2°C° 0 mm 2 mps 620 mmHg 89%
    18:00 -1°C° 0 mm 2 mps 620 mmHg 90%
    19:00 -1°C° 0 mm 2 mps 619 mmHg 89%
    20:00 -1°C° 0 mm 2 mps 619 mmHg 87%
    21:00 -1°C° 0 mm 2 mps 619 mmHg 86%
    22:00 -1°C° 0 mm 2 mps 619 mmHg 85%
    23:00 -1°C° 0 mm 2 mps 619 mmHg 84%

    16 December, Monday

    Time Temperature Precipitation Wind Pressure Humidity
    00:00 -1°C° 0 mm 2 mps 618 mmHg 84%
    01:00 -1°C° 0 mm 2 mps 618 mmHg 82%
    02:00 -2°C° 0 mm 2 mps 618 mmHg 80%
    03:00 -2°C° 0 mm 2 mps 617 mmHg 78%
    04:00 -2°C° 0 mm 2 mps 617 mmHg 77%
    05:00 -2°C° 0 mm 2 mps 617 mmHg 75%
    06:00 -2°C° 0 mm 2 mps 617 mmHg 73%
    07:00 -1°C° 0 mm 2 mps 617 mmHg 74%
    08:00 +1°C° 0 mm 2 mps 617 mmHg 76%
    09:00 +1°C° 0 mm 3 mps 618 mmHg 77%
    10:00 +2°C° 0 mm 3 mps 618 mmHg 78%
    11:00 +2°C° 0 mm 3 mps 618 mmHg 80%
    12:00 +3°C° 0 mm 3 mps 617 mmHg 81%
    13:00 +3°C° 0 mm 3 mps 617 mmHg 82%
    14:00 +3°C° 0 mm 3 mps 617 mmHg 83%
    15:00 +2°C° 0 mm 3 mps 616 mmHg 83%
    16:00 +2°C° 0 mm 3 mps 616 mmHg 85%
    17:00 +1°C° 0 mm 3 mps 615 mmHg 86%
    18:00 0°C° 0 mm 3 mps 615 mmHg 88%
    19:00 0°C° 0 mm 3 mps 615 mmHg 89%
    20:00 0°C° 0 mm 3 mps 615 mmHg 91%
    21:00 +2°C° 0 mm 2 mps 615 mmHg 92%
    22:00 +1°C° 0 mm 2 mps 615 mmHg 91%
    23:00 +1°C° 0 mm 2 mps 615 mmHg 89%

    17 December, Tuesday

    Time Temperature Precipitation Wind Pressure Humidity
    00:00 +1°C° 0 mm 2 mps 615 mmHg 88%
    01:00 -1°C° 0 mm 2 mps 615 mmHg 87%
    02:00 +1°C° 0 mm 1 mps 615 mmHg 86%
    03:00 0°C° 0 mm 1 mps 615 mmHg 86%
    04:00 0°C° 0 mm 1 mps 615 mmHg 86%
    05:00 0°C° 0 mm 1 mps 615 mmHg 86%
    06:00 0°C° 0 mm 1 mps 615 mmHg 87%
    07:00 0°C° 0 mm 0 mps 616 mmHg 86%
    08:00 +1°C° 0 mm 0 mps 617 mmHg 86%
    09:00 +2°C° 0 mm 0 mps 618 mmHg 86%
    10:00 +2°C° 0.1 mm 0 mps 619 mmHg 86%
    11:00 +4°C° 0.1 mm 1 mps 619 mmHg 86%
    12:00 +4°C° 0.1 mm 1 mps 620 mmHg 87%
    13:00 +4°C° 0.1 mm 1 mps 620 mmHg 88%
    14:00 +4°C° 0.1 mm 1 mps 620 mmHg 90%
    15:00 +3°C° 0.1 mm 0 mps 620 mmHg 91%
    16:00 +3°C° 0 mm 1 mps 620 mmHg 92%
    17:00 +2°C° 0 mm 1 mps 620 mmHg 93%
    18:00 +1°C° 0 mm 1 mps 621 mmHg 94%
    19:00 0°C° 0 mm 1 mps 621 mmHg 93%
    20:00 0°C° 0 mm 1 mps 622 mmHg 92%
    21:00 0°C° 0 mm 1 mps 622 mmHg 92%
    22:00 0°C° 0 mm 1 mps 622 mmHg 91%
    23:00 0°C° 0 mm 1 mps 623 mmHg 90%
    Show more